Regional Weather Roundup
Issued by NWS

Home | Current Version | Previous Version | Graphics & Text | Print | Product List | Glossary On
Versions: 1 2 3 4 5 6 7 8 9 10 11 12 13 14 15 16 17 18 19 20 21 22 23 24 25 26 27 28 29 30 31 32 33 34 35 36 37 38 39 40 41 42 43 44 45 46 47 48 49 50
000
ASUS43 KMKX 242321
RWRWI

WISCONSIN REGIONAL WEATHER ROUNDUP
NATIONAL WEATHER SERVICE MILWAUKEE/SULLIVAN WI
600 PM CDT SUN MAY 24 2015

NOTE: "FAIR" INDICATES FEW OR NO CLOUDS BELOW 12,000 FEET WITH NO
SIGNIFICANT WEATHER AND/OR OBSTRUCTIONS TO VISIBILITY.

WIZ001-002-006>008-014>016-023>028-250000-
NORTHWEST WISCONSIN

CITY           SKY/WX    TMP DP  RH WIND       PRES   REMARKS
SUPERIOR ARPT  CLOUDY    68  50  51 S3        29.95F
ASHLAND        CLOUDY    70  49  47 CALM      29.97S
HAYWARD        LGT RAIN  61  58  90 CALM      29.99F FOG
SIREN          LGT RAIN  60  58  93 E3        29.96F
CUMBERLAND     LGT RAIN  59  55  88 E7        29.96F
RICE LAKE      DRIZZLE   59  56  89 E10       29.98F
CHETEK         NOT AVBL
LADYSMITH      RAIN      60  57  92 E7        30.00F
EAU CLAIRE     HVY RAIN  59  57  93 E6        29.93F FOG
MENOMONIE      RAIN      59  58  97 E10G16    29.93F
NEW RICHMOND   LGT RAIN  58  58  99 E9        29.93F
OSCEOLA        LGT RAIN  60  60 100 E6        29.95F
$$

WIZ003>005-009-010-017-018-250000-
NORTH CENTRAL WISCONSIN

CITY           SKY/WX    TMP DP  RH WIND       PRES   REMARKS
MANITOWISH WTR DRIZZLE   61  54  77 S8        30.02S
ARBOR VITAE    LGT RAIN  59  56  88 S5        30.03S
WOODRUFF       LGT RAIN  59  56  88 S5        30.03S
RHINELANDER    RAIN      59  56  89 SE8       30.04F FOG
EAGLE RIVER    LGT RAIN  60  52  75 S6        30.03S
LAND O LAKES   CLOUDY    66  51  57 S7        30.03R
PHILLIPS       RAIN      57  56  94 E5        30.00F
TOMAHAWK       LGT RAIN  56  55  94 SE3       30.03S
MEDFORD        LGT RAIN  56  55  95 E7        29.98F
MERRILL        LGT RAIN  58  57  97 SE7       30.03S
$$

WIZ029-030-035-036-043>047-250000-
CENTRAL WISCONSIN

CITY           SKY/WX    TMP DP  RH WIND       PRES   REMARKS
WAUSAU         RAIN      58  56  93 E9        30.00F FOG
MOSINEE        RAIN      57  57 100 E7        30.02F
MARSHFIELD     RAIN      58  55  90 E15       29.97F FOG
STEVENS POINT  RAIN      55  55  97 E9        30.01F
WAUPACA        HVY RAIN  59  59  98 E10       30.02F
WAUTOMA        LGT RAIN  57  57 100 E6        30.01F FOG
WISC RAPIDS    RAIN      58  55  90 SE7       29.99F FOG
CAMP DOUGLAS   CLOUDY    57  57 100 E15G21    29.94F
$$

WIZ011>013-019>022-031-037>040-048>050-250000-
NORTHEAST WISCONSIN

CITY           SKY/WX    TMP DP  RH WIND       PRES   REMARKS
ANTIGO         LGT RAIN  56  55  97 SE8       30.04F
SHAWANO        RAIN      61  57  87 SE7       30.04F
OCONTO         CLOUDY    59  59 100 SE5       30.05F
STURGEON BAY   CLOUDY    57  52  82 SE9       30.09F
GREEN BAY      RAIN      59  55  87 SE9       30.05F FOG
MANITOWOC      HVY RAIN  51  50  96 SE8       30.06F FOG
APPLETON       LGT RAIN  57  57 100 SE10      30.04F FOG
CLINTONVILLE   HVY RAIN  59  55  88 S7        30.03F
OSHKOSH        LGT RAIN  57  54  89 SE13      30.00F FOG
$$

WIZ032>034-041-042-053>061-250000-
SOUTHWEST WISCONSIN

CITY           SKY/WX    TMP DP  RH WIND       PRES   REMARKS
LA CROSSE      LGT RAIN  62  57  83 SE9       29.90F
SPARTA         DRIZZLE   59  55  88 E14G22    29.92F
VIROQUA        CLOUDY    58  58 100 E14       29.91F
BOSCOBEL       CLOUDY    62  58  86 NE7       29.91F
PRAIRIE DU CHI CLOUDY    63  58  86 E10       29.87F
PLATTEVILLE    CLOUDY    63  61  94 E13       29.90F
$$

WIZ056-057-062-063-064-067-068-250000-
SOUTH CENTRAL WISCONSIN

CITY           SKY/WX    TMP DP  RH WIND       PRES   REMARKS
REEDSBURG      DRIZZLE   56  56  97 E5        29.96F
BARABOO/DELLS  LGT RAIN  56  55  93 E7        29.96F
LONE ROCK      CLOUDY    60  57  89 E12       29.93F
MINERAL POINT  CLOUDY    61  59  94 E9        29.92F FOG
MADISON        LGT RAIN  59  55  87 E14G22    29.95F FOG
MIDDLETON      CLOUDY    60  57  91 E14       29.95F
WATERTOWN      CLOUDY    56  56 100 E13       29.97F
MONROE         RAIN      61  59  94 NE10G17   29.91F
JANESVILLE     LGT RAIN  63  55  77 E15G21    29.94F
$$

WIZ051-052-058>065-066-070>072-250000-
SOUTHEAST WISCONSIN

CITY           SKY/WX    TMP DP  RH WIND       PRES   REMARKS
MILWAUKEE      CLOUDY    52  49  89 NE7       30.02F FOG
WAUKESHA       CLOUDY    54  52  94 E12       30.02F
MILWAUKEE/TIMM NOT AVBL
RACINE         LGT RAIN  55  51  86 E8        30.03F FOG
BURLINGTON     CLOUDY    58  54  85 E10       29.98F
KENOSHA        CLOUDY    58  54  86 E10       29.99F
FOND DU LAC    HVY RAIN  57  53  86 SE10      30.01F FOG
SHEBOYGAN      LGT RAIN  54  52  93 E8        30.04F FOG
WEST BEND      LGT RAIN  54  52  94 E8        30.02F
JUNEAU         RAIN      55  54  94 E17       30.00F
$$

LSZ147-162-250000-
LAKE SUPERIOR

STATION/POSITION TIME  TEMP    WIND        PRES    WAVE
                       AIR SEA DIR/SP/G            HT/PER
                 (UTC) (F)     (DEG/KT/KT) (MB)    (FT/S)
W MID LAKE BUOY  2250   42 37   30/  6/  6   N/A     0
DEVILS ISLAND    2300           80/  8/ 10   N/A
PORT WING        2240   57      CALM  /  2   N/A
SAXON HARBOR     2200   60        CALM       N/A
$$

LMZ867-665-643>646-250000-
LAKE MICHIGAN

STATION/POSITION TIME  TEMP    WIND        PRES    WAVE
                       AIR SEA DIR/SP/G            HT/PER
                 (UTC) (F)     (DEG/KT/KT) (MB)    (FT/S)
CHAMBERS ISLAND  2200   60     180/  5/ 10   N/A
N MID LAKE BUOY  2250   45 36  220/ 12/ 16   N/A     1/ 4
NORTHPORT PIER   2200   59     150/  6/  9   N/A
SISTER BAY       2218   62     210/ 15/ 18   N/A
KEWAUNEE LAKESHO 2200   52     170/  2/  3   N/A
SHEBOYGAN LAKESH 2300   50      90/ 11/ 12   N/A
PORT WASHINGTON  2300   50      40/  9/ 14   N/A
ATWATER BUOY     2200   48 47  340/  6/  8   N/A
MILWAUKEE LAKESH 2200   51      30/  8/  9   N/A
S MID LAKE BUOY  2250   48 38  100/ 12/ 12   N/A     1
KENOSHA   LAKESH 2210   56      40/  4/ 15   N/A
$$

TC  - TEMPERATURE IN CELSIUS
VSB - VISIBILITY IN STATUTE MILES
WCI - WIND CHILL INDEX
HX  - HEAT INDEX



USA.gov is the U.S. government's official web portal to all federal, state and local government web resources and services.